Location: Unspecified
(64.9000°N, 0.0000°E)
Time: 20:02:09
(UTC+00:00)

A-11 Canister half - Pass Details

Date: 21 June 2019
Orbit: 1526 x 1683 km, 47.3° (Epoch: 21 August)

Event Time Altitude Azimuth Distance (km) Brightness Sun altitude
Rises 05:13:59 0° 208° (SSW) 4,715 11.1 16.2°
Reaches altitude 10° 05:18:08 10° 193° (SSW) 3,715 10.8 16.7°
Maximum altitude 05:24:09 19° 152° (SSE) 3,019 10.8 17.3°
Drops below altitude 10° 05:30:08 10° 111° (ESE) 3,697 12.0 17.9°
Sets 05:34:14 0° 95° (E) 4,685 12.8 18.3°
